#datetime,building,power
2023-06-09T00:00:00,sdl,5.28
2023-06-09T00:01:00,sdl,4.40
2023-06-09T00:02:00,sdl,5.63
2023-06-09T00:03:00,sdl,4.28
2023-06-09T00:04:00,sdl,4.31
2023-06-09T00:05:00,sdl,4.37
2023-06-09T00:06:00,sdl,3.37
2023-06-09T00:07:00,sdl,3.42
2023-06-09T00:08:00,sdl,3.28
2023-06-09T00:09:00,sdl,4.58
2023-06-09T00:10:00,sdl,5.48
2023-06-09T00:11:00,sdl,5.35
2023-06-09T00:12:00,sdl,5.37
2023-06-09T00:13:00,sdl,5.41
2023-06-09T00:14:00,sdl,5.76
2023-06-09T00:15:00,sdl,5.72
2023-06-09T00:16:00,sdl,5.47
2023-06-09T00:17:00,sdl,6.71
2023-06-09T00:18:00,sdl,6.50
2023-06-09T00:19:00,sdl,4.70
2023-06-09T00:20:00,sdl,4.73
2023-06-09T00:21:00,sdl,4.65
2023-06-09T00:22:00,sdl,4.32
2023-06-09T00:23:00,sdl,4.32
2023-06-09T00:24:00,sdl,3.61
2023-06-09T00:25:00,sdl,3.22
2023-06-09T00:26:00,sdl,2.54
2023-06-09T00:27:00,sdl,2.59
2023-06-09T00:28:00,sdl,2.79
2023-06-09T00:29:00,sdl,2.88
2023-06-09T00:30:00,sdl,2.78
2023-06-09T00:31:00,sdl,2.79
2023-06-09T00:32:00,sdl,2.76
2023-06-09T00:33:00,sdl,2.87
2023-06-09T00:34:00,sdl,3.27
2023-06-09T00:35:00,sdl,2.68
2023-06-09T00:36:00,sdl,3.82
2023-06-09T00:37:00,sdl,3.74
2023-06-09T00:38:00,sdl,4.11
2023-06-09T00:39:00,sdl,4.81
2023-06-09T00:40:00,sdl,5.02
2023-06-09T00:41:00,sdl,4.82
2023-06-09T00:42:00,sdl,5.36
2023-06-09T00:43:00,sdl,5.36
2023-06-09T00:44:00,sdl,2.84
2023-06-09T00:45:00,sdl,2.89
2023-06-09T00:46:00,sdl,2.87
2023-06-09T00:47:00,sdl,2.88
2023-06-09T00:48:00,sdl,2.72
2023-06-09T00:49:00,sdl,2.72
2023-06-09T00:50:00,sdl,2.75
2023-06-09T00:51:00,sdl,4.97
2023-06-09T00:52:00,sdl,5.16
2023-06-09T00:53:00,sdl,5.75
2023-06-09T00:54:00,sdl,7.29
2023-06-09T00:55:00,sdl,7.26
2023-06-09T00:56:00,sdl,7.68
2023-06-09T00:57:00,sdl,8.00
2023-06-09T00:58:00,sdl,8.06
2023-06-09T00:59:00,sdl,7.06
2023-06-09T01:00:00,sdl,7.01
2023-06-09T01:01:00,sdl,7.05
2023-06-09T01:02:00,sdl,6.97
2023-06-09T01:03:00,sdl,5.56
2023-06-09T01:04:00,sdl,5.06
2023-06-09T01:05:00,sdl,5.02
2023-06-09T01:06:00,sdl,5.35
2023-06-09T01:07:00,sdl,5.11
2023-06-09T01:08:00,sdl,5.16
2023-06-09T01:09:00,sdl,3.04
2023-06-09T01:10:00,sdl,3.06
2023-06-09T01:11:00,sdl,2.90
2023-06-09T01:12:00,sdl,2.89
2023-06-09T01:13:00,sdl,2.87
2023-06-09T01:14:00,sdl,3.94
2023-06-09T01:15:00,sdl,4.51
2023-06-09T01:16:00,sdl,3.93
2023-06-09T01:17:00,sdl,3.99
2023-06-09T01:18:00,sdl,4.22
2023-06-09T01:19:00,sdl,4.10
2023-06-09T01:20:00,sdl,4.07
2023-06-09T01:21:00,sdl,3.97
2023-06-09T01:22:00,sdl,3.07
2023-06-09T01:23:00,sdl,3.26
2023-06-09T01:24:00,sdl,3.27
2023-06-09T01:25:00,sdl,3.23
2023-06-09T01:26:00,sdl,2.89
2023-06-09T01:27:00,sdl,2.90
2023-06-09T01:28:00,sdl,2.93
2023-06-09T01:29:00,sdl,2.88
2023-06-09T01:30:00,sdl,2.84
2023-06-09T01:31:00,sdl,2.99
2023-06-09T01:32:00,sdl,2.89
2023-06-09T01:33:00,sdl,3.87
2023-06-09T01:34:00,sdl,4.56
2023-06-09T01:35:00,sdl,4.18
2023-06-09T01:36:00,sdl,5.09
2023-06-09T01:37:00,sdl,5.09
2023-06-09T01:38:00,sdl,5.18
2023-06-09T01:39:00,sdl,5.27
2023-06-09T01:40:00,sdl,5.23
2023-06-09T01:41:00,sdl,4.14
2023-06-09T01:42:00,sdl,2.83
2023-06-09T01:43:00,sdl,3.08
2023-06-09T01:44:00,sdl,2.84
2023-06-09T01:45:00,sdl,2.87
2023-06-09T01:46:00,sdl,2.89
2023-06-09T01:47:00,sdl,5.00
2023-06-09T01:48:00,sdl,4.98
2023-06-09T01:49:00,sdl,4.94
2023-06-09T01:50:00,sdl,4.94
2023-06-09T01:51:00,sdl,6.03
2023-06-09T01:52:00,sdl,6.62
2023-06-09T01:53:00,sdl,7.32
2023-06-09T01:54:00,sdl,7.00
2023-06-09T01:55:00,sdl,6.07
2023-06-09T01:56:00,sdl,6.94
2023-06-09T01:57:00,sdl,6.86
2023-06-09T01:58:00,sdl,6.04
2023-06-09T01:59:00,sdl,5.29
2023-06-09T02:00:00,sdl,2.52
2023-06-09T02:01:00,sdl,4.56
2023-06-09T02:02:00,sdl,4.23
2023-06-09T02:03:00,sdl,3.87
2023-06-09T02:04:00,sdl,3.92
2023-06-09T02:05:00,sdl,3.95
2023-06-09T02:06:00,sdl,4.24
2023-06-09T02:07:00,sdl,4.14
2023-06-09T02:08:00,sdl,4.38
2023-06-09T02:09:00,sdl,4.13
2023-06-09T02:10:00,sdl,4.48
2023-06-09T02:11:00,sdl,5.20
2023-06-09T02:12:00,sdl,5.12
2023-06-09T02:13:00,sdl,5.13
2023-06-09T02:14:00,sdl,5.25
2023-06-09T02:15:00,sdl,7.56
2023-06-09T02:16:00,sdl,7.60
2023-06-09T02:17:00,sdl,7.68
2023-06-09T02:18:00,sdl,6.82
2023-06-09T02:19:00,sdl,6.38
2023-06-09T02:20:00,sdl,6.76
2023-06-09T02:21:00,sdl,6.84
2023-06-09T02:22:00,sdl,6.38
2023-06-09T02:23:00,sdl,6.14
2023-06-09T02:24:00,sdl,6.17
2023-06-09T02:25:00,sdl,6.63
2023-06-09T02:26:00,sdl,6.05
2023-06-09T02:27:00,sdl,3.80
2023-06-09T02:28:00,sdl,3.82
2023-06-09T02:29:00,sdl,3.83
2023-06-09T02:30:00,sdl,5.03
2023-06-09T02:31:00,sdl,4.86
2023-06-09T02:32:00,sdl,5.24
2023-06-09T02:33:00,sdl,6.08
2023-06-09T02:34:00,sdl,6.23
2023-06-09T02:35:00,sdl,6.26
2023-06-09T02:36:00,sdl,6.32
2023-06-09T02:37:00,sdl,7.11
2023-06-09T02:38:00,sdl,4.32
2023-06-09T02:39:00,sdl,4.14
2023-06-09T02:40:00,sdl,4.13
2023-06-09T02:41:00,sdl,4.17
2023-06-09T02:42:00,sdl,4.12
2023-06-09T02:43:00,sdl,4.07
2023-06-09T02:44:00,sdl,4.00
2023-06-09T02:45:00,sdl,3.95
2023-06-09T02:46:00,sdl,4.00
2023-06-09T02:47:00,sdl,3.92
2023-06-09T02:48:00,sdl,3.98
2023-06-09T02:49:00,sdl,5.77
2023-06-09T02:50:00,sdl,5.89
2023-06-09T02:51:00,sdl,6.17
2023-06-09T02:52:00,sdl,6.03
2023-06-09T02:53:00,sdl,6.05
2023-06-09T02:54:00,sdl,5.05
2023-06-09T02:55:00,sdl,5.06
2023-06-09T02:56:00,sdl,4.99
2023-06-09T02:57:00,sdl,3.90
2023-06-09T02:58:00,sdl,3.94
2023-06-09T02:59:00,sdl,3.89
2023-06-09T03:00:00,sdl,3.85
2023-06-09T03:01:00,sdl,3.86
2023-06-09T03:02:00,sdl,3.67
2023-06-09T03:03:00,sdl,5.87
2023-06-09T03:04:00,sdl,5.96
2023-06-09T03:05:00,sdl,5.78
2023-06-09T03:06:00,sdl,5.74
2023-06-09T03:07:00,sdl,5.73
2023-06-09T03:08:00,sdl,5.70
2023-06-09T03:09:00,sdl,7.61
2023-06-09T03:10:00,sdl,6.99
2023-06-09T03:11:00,sdl,7.00
2023-06-09T03:12:00,sdl,7.61
2023-06-09T03:13:00,sdl,7.12
2023-06-09T03:14:00,sdl,7.11
2023-06-09T03:15:00,sdl,7.13
2023-06-09T03:16:00,sdl,8.13
2023-06-09T03:17:00,sdl,8.26
2023-06-09T03:18:00,sdl,6.41
2023-06-09T03:19:00,sdl,6.03
2023-06-09T03:20:00,sdl,3.80
2023-06-09T03:21:00,sdl,3.85
2023-06-09T03:22:00,sdl,3.82
2023-06-09T03:23:00,sdl,3.81
2023-06-09T03:24:00,sdl,3.71
2023-06-09T03:25:00,sdl,3.85
2023-06-09T03:26:00,sdl,3.84
2023-06-09T03:27:00,sdl,3.88
2023-06-09T03:28:00,sdl,4.26
2023-06-09T03:29:00,sdl,4.98
2023-06-09T03:30:00,sdl,5.05
2023-06-09T03:31:00,sdl,5.31
2023-06-09T03:32:00,sdl,6.06
2023-06-09T03:33:00,sdl,6.14
2023-06-09T03:34:00,sdl,6.21
2023-06-09T03:35:00,sdl,6.38
2023-06-09T03:36:00,sdl,6.22
2023-06-09T03:37:00,sdl,4.06
2023-06-09T03:38:00,sdl,4.01
2023-06-09T03:39:00,sdl,3.97
2023-06-09T03:40:00,sdl,3.93
2023-06-09T03:41:00,sdl,4.24
2023-06-09T03:42:00,sdl,3.87
2023-06-09T03:43:00,sdl,4.01
2023-06-09T03:44:00,sdl,4.04
2023-06-09T03:45:00,sdl,4.29
2023-06-09T03:46:00,sdl,4.34
2023-06-09T03:47:00,sdl,4.09
2023-06-09T03:48:00,sdl,7.42
2023-06-09T03:49:00,sdl,7.63
2023-06-09T03:50:00,sdl,8.43
2023-06-09T03:51:00,sdl,8.40
2023-06-09T03:52:00,sdl,8.54
2023-06-09T03:53:00,sdl,7.68
2023-06-09T03:54:00,sdl,7.63
2023-06-09T03:55:00,sdl,7.66
2023-06-09T03:56:00,sdl,6.40
2023-06-09T03:57:00,sdl,6.44
2023-06-09T03:58:00,sdl,4.06
2023-06-09T03:59:00,sdl,4.09
2023-06-09T04:00:00,sdl,3.94
2023-06-09T04:01:00,sdl,4.37
2023-06-09T04:02:00,sdl,4.57
2023-06-09T04:03:00,sdl,3.92
2023-06-09T04:04:00,sdl,3.90
2023-06-09T04:05:00,sdl,3.90
2023-06-09T04:06:00,sdl,4.20
2023-06-09T04:07:00,sdl,4.01
2023-06-09T04:08:00,sdl,5.27
2023-06-09T04:09:00,sdl,5.49
2023-06-09T04:10:00,sdl,5.21
2023-06-09T04:11:00,sdl,5.11
2023-06-09T04:12:00,sdl,4.96
2023-06-09T04:13:00,sdl,5.04
2023-06-09T04:14:00,sdl,7.60
2023-06-09T04:15:00,sdl,7.61
2023-06-09T04:16:00,sdl,6.17
2023-06-09T04:17:00,sdl,5.92
2023-06-09T04:18:00,sdl,6.10
2023-06-09T04:19:00,sdl,6.00
2023-06-09T04:20:00,sdl,5.98
2023-06-09T04:21:00,sdl,6.00
2023-06-09T04:22:00,sdl,6.01
2023-06-09T04:23:00,sdl,5.97
2023-06-09T04:24:00,sdl,6.10
2023-06-09T04:25:00,sdl,6.12
2023-06-09T04:26:00,sdl,6.86
2023-06-09T04:27:00,sdl,7.31
2023-06-09T04:28:00,sdl,7.27
2023-06-09T04:29:00,sdl,8.12
2023-06-09T04:30:00,sdl,8.04
2023-06-09T04:31:00,sdl,6.41
2023-06-09T04:32:00,sdl,6.00
2023-06-09T04:33:00,sdl,6.02
2023-06-09T04:34:00,sdl,6.31
2023-06-09T04:35:00,sdl,5.46
2023-06-09T04:36:00,sdl,4.20
2023-06-09T04:37:00,sdl,4.16
2023-06-09T04:38:00,sdl,4.18
2023-06-09T04:39:00,sdl,4.02
2023-06-09T04:40:00,sdl,4.08
2023-06-09T04:41:00,sdl,4.01
2023-06-09T04:42:00,sdl,4.01
2023-06-09T04:43:00,sdl,4.40
2023-06-09T04:44:00,sdl,4.57
2023-06-09T04:45:00,sdl,4.27
2023-06-09T04:46:00,sdl,6.36
2023-06-09T04:47:00,sdl,6.41
2023-06-09T04:48:00,sdl,6.54
2023-06-09T04:49:00,sdl,7.10
2023-06-09T04:50:00,sdl,6.44
2023-06-09T04:51:00,sdl,5.38
2023-06-09T04:52:00,sdl,5.28
2023-06-09T04:53:00,sdl,5.20
2023-06-09T04:54:00,sdl,4.04
2023-06-09T04:55:00,sdl,3.98
2023-06-09T04:56:00,sdl,4.00
2023-06-09T04:57:00,sdl,4.03
2023-06-09T04:58:00,sdl,4.00
2023-06-09T04:59:00,sdl,3.92
2023-06-09T05:00:00,sdl,4.36
2023-06-09T05:01:00,sdl,4.17
2023-06-09T05:02:00,sdl,4.20
2023-06-09T05:03:00,sdl,4.32
2023-06-09T05:04:00,sdl,4.24
2023-06-09T05:05:00,sdl,4.23
2023-06-09T05:06:00,sdl,5.35
2023-06-09T05:07:00,sdl,5.07
2023-06-09T05:08:00,sdl,5.18
2023-06-09T05:09:00,sdl,5.18
2023-06-09T05:10:00,sdl,5.28
2023-06-09T05:11:00,sdl,5.63
2023-06-09T05:12:00,sdl,5.57
2023-06-09T05:13:00,sdl,4.42
2023-06-09T05:14:00,sdl,4.11
2023-06-09T05:15:00,sdl,4.14
2023-06-09T05:16:00,sdl,6.32
2023-06-09T05:17:00,sdl,6.34
2023-06-09T05:18:00,sdl,6.39
2023-06-09T05:19:00,sdl,6.36
2023-06-09T05:20:00,sdl,6.35
2023-06-09T05:21:00,sdl,6.68
2023-06-09T05:22:00,sdl,7.32
2023-06-09T05:23:00,sdl,6.79
2023-06-09T05:24:00,sdl,7.84
2023-06-09T05:25:00,sdl,7.92
2023-06-09T05:26:00,sdl,7.76
2023-06-09T05:27:00,sdl,8.25
2023-06-09T05:28:00,sdl,8.42
2023-06-09T05:29:00,sdl,8.87
2023-06-09T05:30:00,sdl,8.93
2023-06-09T05:31:00,sdl,9.02
2023-06-09T05:32:00,sdl,5.01
2023-06-09T05:33:00,sdl,4.09
2023-06-09T05:34:00,sdl,4.03
2023-06-09T05:35:00,sdl,3.91
2023-06-09T05:36:00,sdl,4.16
2023-06-09T05:37:00,sdl,3.91
2023-06-09T05:38:00,sdl,4.26
2023-06-09T05:39:00,sdl,4.09
2023-06-09T05:40:00,sdl,4.43
2023-06-09T05:41:00,sdl,4.54
2023-06-09T05:42:00,sdl,4.15
2023-06-09T05:43:00,sdl,5.05
2023-06-09T05:44:00,sdl,5.59
2023-06-09T05:45:00,sdl,5.96
2023-06-09T05:46:00,sdl,6.27
2023-06-09T05:47:00,sdl,6.33
2023-06-09T05:48:00,sdl,8.51
2023-06-09T05:49:00,sdl,8.54
2023-06-09T05:50:00,sdl,8.54
2023-06-09T05:51:00,sdl,8.61
2023-06-09T05:52:00,sdl,6.64
2023-06-09T05:53:00,sdl,6.44
2023-06-09T05:54:00,sdl,6.49
2023-06-09T05:55:00,sdl,6.49
2023-06-09T05:56:00,sdl,6.52
2023-06-09T05:57:00,sdl,6.58
2023-06-09T05:58:00,sdl,6.63
2023-06-09T05:59:00,sdl,4.44
2023-06-09T06:00:00,sdl,4.40
2023-06-09T06:01:00,sdl,4.91
2023-06-09T06:02:00,sdl,4.21
2023-06-09T06:03:00,sdl,4.17
2023-06-09T06:04:00,sdl,5.57
2023-06-09T06:05:00,sdl,5.71
2023-06-09T06:06:00,sdl,6.24
2023-06-09T06:07:00,sdl,5.20
2023-06-09T06:08:00,sdl,5.31
2023-06-09T06:09:00,sdl,5.30
2023-06-09T06:10:00,sdl,4.94
2023-06-09T06:11:00,sdl,5.18
2023-06-09T06:12:00,sdl,3.92
2023-06-09T06:13:00,sdl,4.04
2023-06-09T06:14:00,sdl,4.23
2023-06-09T06:15:00,sdl,4.79
2023-06-09T06:16:00,sdl,4.42
2023-06-09T06:17:00,sdl,4.04
2023-06-09T06:18:00,sdl,3.99
2023-06-09T06:19:00,sdl,3.99
2023-06-09T06:20:00,sdl,4.24
2023-06-09T06:21:00,sdl,4.02
2023-06-09T06:22:00,sdl,4.08
2023-06-09T06:23:00,sdl,5.34
2023-06-09T06:24:00,sdl,5.20
2023-06-09T06:25:00,sdl,5.23
2023-06-09T06:26:00,sdl,7.44
2023-06-09T06:27:00,sdl,7.52
2023-06-09T06:28:00,sdl,7.38
2023-06-09T06:29:00,sdl,7.50
2023-06-09T06:30:00,sdl,7.40
2023-06-09T06:31:00,sdl,6.16
2023-06-09T06:32:00,sdl,6.06
2023-06-09T06:33:00,sdl,6.11
2023-06-09T06:34:00,sdl,6.29
2023-06-09T06:35:00,sdl,6.17
2023-06-09T06:36:00,sdl,6.18
2023-06-09T06:37:00,sdl,6.17
2023-06-09T06:38:00,sdl,6.19
2023-06-09T06:39:00,sdl,6.43
2023-06-09T06:40:00,sdl,6.12
2023-06-09T06:41:00,sdl,6.21
2023-06-09T06:42:00,sdl,7.54
2023-06-09T06:43:00,sdl,5.14
2023-06-09T06:44:00,sdl,5.54
2023-06-09T06:45:00,sdl,5.33
2023-06-09T06:46:00,sdl,5.95
2023-06-09T06:47:00,sdl,5.84
2023-06-09T06:48:00,sdl,6.08
2023-06-09T06:49:00,sdl,6.64
2023-06-09T06:50:00,sdl,4.97
2023-06-09T06:51:00,sdl,4.04
2023-06-09T06:52:00,sdl,4.00
2023-06-09T06:53:00,sdl,4.02
2023-06-09T06:54:00,sdl,3.98
2023-06-09T06:55:00,sdl,3.92
2023-06-09T06:56:00,sdl,3.95
2023-06-09T06:57:00,sdl,3.91
2023-06-09T06:58:00,sdl,3.89
2023-06-09T06:59:00,sdl,3.94
2023-06-09T07:00:00,sdl,3.96
2023-06-09T07:01:00,sdl,4.93
2023-06-09T07:02:00,sdl,5.45
2023-06-09T07:03:00,sdl,5.87
2023-06-09T07:04:00,sdl,6.83
2023-06-09T07:05:00,sdl,6.93
2023-06-09T07:06:00,sdl,5.71
2023-06-09T07:07:00,sdl,5.33
2023-06-09T07:08:00,sdl,6.32
2023-06-09T07:09:00,sdl,7.22
2023-06-09T07:10:00,sdl,6.24
2023-06-09T07:11:00,sdl,7.97
2023-06-09T07:12:00,sdl,8.72
2023-06-09T07:13:00,sdl,8.21
2023-06-09T07:14:00,sdl,8.33
2023-06-09T07:15:00,sdl,7.98
2023-06-09T07:16:00,sdl,7.76
2023-06-09T07:17:00,sdl,7.74
2023-06-09T07:18:00,sdl,7.60
2023-06-09T07:19:00,sdl,7.59
2023-06-09T07:20:00,sdl,8.11
2023-06-09T07:21:00,sdl,8.40
2023-06-09T07:22:00,sdl,8.85
2023-06-09T07:23:00,sdl,9.51
2023-06-09T07:24:00,sdl,9.67
2023-06-09T07:25:00,sdl,8.72
2023-06-09T07:26:00,sdl,8.54
2023-06-09T07:27:00,sdl,10.72
2023-06-09T07:28:00,sdl,10.92
2023-06-09T07:29:00,sdl,10.95
2023-06-09T07:30:00,sdl,9.42
2023-06-09T07:31:00,sdl,9.60
2023-06-09T07:32:00,sdl,9.96
2023-06-09T07:33:00,sdl,9.78
2023-06-09T07:34:00,sdl,9.43
2023-06-09T07:35:00,sdl,9.72
2023-06-09T07:36:00,sdl,9.69
2023-06-09T07:37:00,sdl,10.08
2023-06-09T07:38:00,sdl,10.70
2023-06-09T07:39:00,sdl,11.29
2023-06-09T07:40:00,sdl,11.38
2023-06-09T07:41:00,sdl,11.53
2023-06-09T07:42:00,sdl,9.46
2023-06-09T07:43:00,sdl,9.58
2023-06-09T07:44:00,sdl,9.93
2023-06-09T07:45:00,sdl,8.96
2023-06-09T07:46:00,sdl,9.09
2023-06-09T07:47:00,sdl,9.01
2023-06-09T07:48:00,sdl,7.36
2023-06-09T07:49:00,sdl,7.34
2023-06-09T07:50:00,sdl,7.27
2023-06-09T07:51:00,sdl,7.22
2023-06-09T07:52:00,sdl,7.15
2023-06-09T07:53:00,sdl,7.08
2023-06-09T07:54:00,sdl,7.06
2023-06-09T07:55:00,sdl,7.74
2023-06-09T07:56:00,sdl,7.09
2023-06-09T07:57:00,sdl,10.62
2023-06-09T07:58:00,sdl,10.40
2023-06-09T07:59:00,sdl,10.67
2023-06-09T08:00:00,sdl,10.57
2023-06-09T08:01:00,sdl,10.66
2023-06-09T08:02:00,sdl,10.69
2023-06-09T08:03:00,sdl,11.14
2023-06-09T08:04:00,sdl,10.75
2023-06-09T08:05:00,sdl,10.92
2023-06-09T08:06:00,sdl,9.27
2023-06-09T08:07:00,sdl,9.28
2023-06-09T08:08:00,sdl,9.24
2023-06-09T08:09:00,sdl,7.12
2023-06-09T08:10:00,sdl,7.10
2023-06-09T08:11:00,sdl,7.15
2023-06-09T08:12:00,sdl,7.12
2023-06-09T08:13:00,sdl,7.31
2023-06-09T08:14:00,sdl,8.46
2023-06-09T08:15:00,sdl,8.70
2023-06-09T08:16:00,sdl,9.58
2023-06-09T08:17:00,sdl,9.58
2023-06-09T08:18:00,sdl,8.69
2023-06-09T08:19:00,sdl,7.77
2023-06-09T08:20:00,sdl,5.47
2023-06-09T08:21:00,sdl,5.50
2023-06-09T08:22:00,sdl,5.52
2023-06-09T08:23:00,sdl,4.66
2023-06-09T08:24:00,sdl,4.31
2023-06-09T08:25:00,sdl,4.41
2023-06-09T08:26:00,sdl,4.28
2023-06-09T08:27:00,sdl,4.64
2023-06-09T08:28:00,sdl,4.38
2023-06-09T08:29:00,sdl,4.77
2023-06-09T08:30:00,sdl,4.24
2023-06-09T08:31:00,sdl,4.25
2023-06-09T08:32:00,sdl,5.29
2023-06-09T08:33:00,sdl,5.43
2023-06-09T08:34:00,sdl,7.32
2023-06-09T08:35:00,sdl,8.32
2023-06-09T08:36:00,sdl,8.59
2023-06-09T08:37:00,sdl,10.18
2023-06-09T08:38:00,sdl,10.33
2023-06-09T08:39:00,sdl,10.04
2023-06-09T08:40:00,sdl,10.60
2023-06-09T08:41:00,sdl,10.15
2023-06-09T08:42:00,sdl,8.59
2023-06-09T08:43:00,sdl,9.28
2023-06-09T08:44:00,sdl,12.49
2023-06-09T08:45:00,sdl,11.98
2023-06-09T08:46:00,sdl,12.21
2023-06-09T08:47:00,sdl,12.18
2023-06-09T08:48:00,sdl,11.05
2023-06-09T08:49:00,sdl,10.80
2023-06-09T08:50:00,sdl,11.01
2023-06-09T08:51:00,sdl,12.28
2023-06-09T08:52:00,sdl,12.64
2023-06-09T08:53:00,sdl,13.17
2023-06-09T08:54:00,sdl,13.68
2023-06-09T08:55:00,sdl,14.72
2023-06-09T08:56:00,sdl,14.64
2023-06-09T08:57:00,sdl,14.20
2023-06-09T08:58:00,sdl,13.21
2023-06-09T08:59:00,sdl,13.26
2023-06-09T09:00:00,sdl,11.71
2023-06-09T09:01:00,sdl,12.33
2023-06-09T09:02:00,sdl,11.66
2023-06-09T09:03:00,sdl,9.38
2023-06-09T09:04:00,sdl,9.40
2023-06-09T09:05:00,sdl,9.43
2023-06-09T09:06:00,sdl,9.44
2023-06-09T09:07:00,sdl,9.29
2023-06-09T09:08:00,sdl,10.58
2023-06-09T09:09:00,sdl,11.22
2023-06-09T09:10:00,sdl,11.11
2023-06-09T09:11:00,sdl,11.22
2023-06-09T09:12:00,sdl,11.29
2023-06-09T09:13:00,sdl,11.44
2023-06-09T09:14:00,sdl,11.10
2023-06-09T09:15:00,sdl,11.09
2023-06-09T09:16:00,sdl,9.26
2023-06-09T09:17:00,sdl,9.30
2023-06-09T09:18:00,sdl,9.46
2023-06-09T09:19:00,sdl,9.49
2023-06-09T09:20:00,sdl,9.90
2023-06-09T09:21:00,sdl,9.60
2023-06-09T09:22:00,sdl,9.39
2023-06-09T09:23:00,sdl,9.35
2023-06-09T09:24:00,sdl,9.42
2023-06-09T09:25:00,sdl,10.26
2023-06-09T09:26:00,sdl,10.63
2023-06-09T09:27:00,sdl,10.62
2023-06-09T09:28:00,sdl,10.94
2023-06-09T09:29:00,sdl,11.11
2023-06-09T09:30:00,sdl,11.14
2023-06-09T09:31:00,sdl,11.62
2023-06-09T09:32:00,sdl,13.18
2023-06-09T09:33:00,sdl,12.35
2023-06-09T09:34:00,sdl,12.66
2023-06-09T09:35:00,sdl,12.03
2023-06-09T09:36:00,sdl,11.64
2023-06-09T09:37:00,sdl,11.56
2023-06-09T09:38:00,sdl,11.55
2023-06-09T09:39:00,sdl,11.54
2023-06-09T09:40:00,sdl,11.83
2023-06-09T09:41:00,sdl,11.44
2023-06-09T09:42:00,sdl,11.39
2023-06-09T09:43:00,sdl,13.04
2023-06-09T09:44:00,sdl,13.28
2023-06-09T09:45:00,sdl,11.70
2023-06-09T09:46:00,sdl,10.78
2023-06-09T09:47:00,sdl,10.84
2023-06-09T09:48:00,sdl,11.15
2023-06-09T09:49:00,sdl,11.39
2023-06-09T09:50:00,sdl,11.63
2023-06-09T09:51:00,sdl,11.09
2023-06-09T09:52:00,sdl,9.46
2023-06-09T09:53:00,sdl,9.53
2023-06-09T09:54:00,sdl,9.48
2023-06-09T09:55:00,sdl,9.58
2023-06-09T09:56:00,sdl,9.69
2023-06-09T09:57:00,sdl,9.66
2023-06-09T09:58:00,sdl,10.12
2023-06-09T09:59:00,sdl,10.04
2023-06-09T10:00:00,sdl,12.11
2023-06-09T10:01:00,sdl,13.50
2023-06-09T10:02:00,sdl,13.28
2023-06-09T10:03:00,sdl,13.62
2023-06-09T10:04:00,sdl,13.63
2023-06-09T10:05:00,sdl,13.69
2023-06-09T10:06:00,sdl,13.61
2023-06-09T10:07:00,sdl,13.74
2023-06-09T10:08:00,sdl,13.82
2023-06-09T10:09:00,sdl,13.80
2023-06-09T10:10:00,sdl,12.12
2023-06-09T10:11:00,sdl,12.18
2023-06-09T10:12:00,sdl,12.16
2023-06-09T10:13:00,sdl,12.31
2023-06-09T10:14:00,sdl,12.41
2023-06-09T10:15:00,sdl,12.37
2023-06-09T10:16:00,sdl,12.36
2023-06-09T10:17:00,sdl,12.71
2023-06-09T10:18:00,sdl,13.94
2023-06-09T10:19:00,sdl,13.47
2023-06-09T10:20:00,sdl,13.49
2023-06-09T10:21:00,sdl,12.41
2023-06-09T10:22:00,sdl,17.05
2023-06-09T10:23:00,sdl,17.36
2023-06-09T10:24:00,sdl,18.32
2023-06-09T10:25:00,sdl,18.45
2023-06-09T10:26:00,sdl,18.40
2023-06-09T10:27:00,sdl,20.20
2023-06-09T10:28:00,sdl,19.90
2023-06-09T10:29:00,sdl,20.06
2023-06-09T10:30:00,sdl,19.95
2023-06-09T10:31:00,sdl,20.92
2023-06-09T10:32:00,sdl,20.31
2023-06-09T10:33:00,sdl,18.76
2023-06-09T10:34:00,sdl,18.42
2023-06-09T10:35:00,sdl,17.80
2023-06-09T10:36:00,sdl,18.84
2023-06-09T10:37:00,sdl,19.03
2023-06-09T10:38:00,sdl,19.31
2023-06-09T10:39:00,sdl,18.93
2023-06-09T10:40:00,sdl,18.86
2023-06-09T10:41:00,sdl,21.80
2023-06-09T10:42:00,sdl,24.15
2023-06-09T10:43:00,sdl,23.54
2023-06-09T10:44:00,sdl,23.62
2023-06-09T10:45:00,sdl,21.18
2023-06-09T10:46:00,sdl,20.84
2023-06-09T10:47:00,sdl,20.65
2023-06-09T10:48:00,sdl,20.31
2023-06-09T10:49:00,sdl,19.69
2023-06-09T10:50:00,sdl,20.04
2023-06-09T10:51:00,sdl,20.57
2023-06-09T10:52:00,sdl,20.25
2023-06-09T10:53:00,sdl,23.39
2023-06-09T10:54:00,sdl,23.79
2023-06-09T10:55:00,sdl,23.22
2023-06-09T10:56:00,sdl,18.81
2023-06-09T10:57:00,sdl,18.90
2023-06-09T10:58:00,sdl,18.84
2023-06-09T10:59:00,sdl,18.41
2023-06-09T11:00:00,sdl,18.66
2023-06-09T11:01:00,sdl,18.28
2023-06-09T11:02:00,sdl,18.15
2023-06-09T11:03:00,sdl,17.01
2023-06-09T11:04:00,sdl,16.98
2023-06-09T11:05:00,sdl,17.46
2023-06-09T11:06:00,sdl,19.36
2023-06-09T11:07:00,sdl,19.28
2023-06-09T11:08:00,sdl,19.27
2023-06-09T11:09:00,sdl,19.34
2023-06-09T11:10:00,sdl,20.30
2023-06-09T11:11:00,sdl,20.26
2023-06-09T11:12:00,sdl,20.29
2023-06-09T11:13:00,sdl,20.22
2023-06-09T11:14:00,sdl,20.41
2023-06-09T11:15:00,sdl,20.16
2023-06-09T11:16:00,sdl,20.16
2023-06-09T11:17:00,sdl,19.89
2023-06-09T11:18:00,sdl,22.17
2023-06-09T11:19:00,sdl,21.69
2023-06-09T11:20:00,sdl,21.73
2023-06-09T11:21:00,sdl,21.41
2023-06-09T11:22:00,sdl,21.43
2023-06-09T11:23:00,sdl,21.46
2023-06-09T11:24:00,sdl,21.75
2023-06-09T11:25:00,sdl,21.74
2023-06-09T11:26:00,sdl,19.55
2023-06-09T11:27:00,sdl,20.47
2023-06-09T11:28:00,sdl,20.48
2023-06-09T11:29:00,sdl,20.32
2023-06-09T11:30:00,sdl,19.69
2023-06-09T11:31:00,sdl,19.02
2023-06-09T11:32:00,sdl,18.89
2023-06-09T11:33:00,sdl,18.53
2023-06-09T11:34:00,sdl,18.53
2023-06-09T11:35:00,sdl,18.60
2023-06-09T11:36:00,sdl,18.59
2023-06-09T11:37:00,sdl,17.62
2023-06-09T11:38:00,sdl,17.71
2023-06-09T11:39:00,sdl,18.08
2023-06-09T11:40:00,sdl,17.90
2023-06-09T11:41:00,sdl,17.60
2023-06-09T11:42:00,sdl,17.86
2023-06-09T11:43:00,sdl,18.02
2023-06-09T11:44:00,sdl,18.08
2023-06-09T11:45:00,sdl,18.95
2023-06-09T11:46:00,sdl,18.71
2023-06-09T11:47:00,sdl,18.69
2023-06-09T11:48:00,sdl,18.62
2023-06-09T11:49:00,sdl,18.61
2023-06-09T11:50:00,sdl,18.60
2023-06-09T11:51:00,sdl,19.13
2023-06-09T11:52:00,sdl,18.66
2023-06-09T11:53:00,sdl,19.42
2023-06-09T11:54:00,sdl,17.84
2023-06-09T11:55:00,sdl,20.06
2023-06-09T11:56:00,sdl,20.06
2023-06-09T11:57:00,sdl,19.96
2023-06-09T11:58:00,sdl,20.18
2023-06-09T11:59:00,sdl,19.81
2023-06-09T12:00:00,sdl,19.79
2023-06-09T12:01:00,sdl,20.03
2023-06-09T12:02:00,sdl,20.90
2023-06-09T12:03:00,sdl,20.90
2023-06-09T12:04:00,sdl,20.80
2023-06-09T12:05:00,sdl,20.80
2023-06-09T12:06:00,sdl,21.00
2023-06-09T12:07:00,sdl,21.10
2023-06-09T12:08:00,sdl,21.26
2023-06-09T12:09:00,sdl,21.70
2023-06-09T12:10:00,sdl,21.19
2023-06-09T12:11:00,sdl,20.80
2023-06-09T12:12:00,sdl,22.03
2023-06-09T12:13:00,sdl,20.16
2023-06-09T12:14:00,sdl,19.91
2023-06-09T12:15:00,sdl,20.42
2023-06-09T12:16:00,sdl,21.30
2023-06-09T12:17:00,sdl,20.32
2023-06-09T12:18:00,sdl,20.76
2023-06-09T12:19:00,sdl,18.51
2023-06-09T12:20:00,sdl,19.12
2023-06-09T12:21:00,sdl,19.01
2023-06-09T12:22:00,sdl,17.94
2023-06-09T12:23:00,sdl,18.39
2023-06-09T12:24:00,sdl,19.69
2023-06-09T12:25:00,sdl,18.62
2023-06-09T12:26:00,sdl,19.43
2023-06-09T12:27:00,sdl,20.35
2023-06-09T12:28:00,sdl,20.11
2023-06-09T12:29:00,sdl,20.10
2023-06-09T12:30:00,sdl,20.03
2023-06-09T12:31:00,sdl,19.37
2023-06-09T12:32:00,sdl,19.52
2023-06-09T12:33:00,sdl,19.47
2023-06-09T12:34:00,sdl,21.29
2023-06-09T12:35:00,sdl,21.83
2023-06-09T12:36:00,sdl,21.14
2023-06-09T12:37:00,sdl,20.07
2023-06-09T12:38:00,sdl,19.85
2023-06-09T12:39:00,sdl,19.97
2023-06-09T12:40:00,sdl,20.81
2023-06-09T12:41:00,sdl,21.76
2023-06-09T12:42:00,sdl,20.67
2023-06-09T12:43:00,sdl,22.16
2023-06-09T12:44:00,sdl,22.45
2023-06-09T12:45:00,sdl,22.67
2023-06-09T12:46:00,sdl,20.62
2023-06-09T12:47:00,sdl,21.19
2023-06-09T12:48:00,sdl,20.51
2023-06-09T12:49:00,sdl,20.38
2023-06-09T12:50:00,sdl,19.35
2023-06-09T12:51:00,sdl,11.20
2023-06-09T12:52:00,sdl,11.29
2023-06-09T12:53:00,sdl,9.08
2023-06-09T12:54:00,sdl,8.99
2023-06-09T12:55:00,sdl,9.26
2023-06-09T12:56:00,sdl,8.99
2023-06-09T12:57:00,sdl,9.75
2023-06-09T12:58:00,sdl,8.90
2023-06-09T12:59:00,sdl,10.18
2023-06-09T13:00:00,sdl,11.06
2023-06-09T13:01:00,sdl,11.73
2023-06-09T13:02:00,sdl,11.88
2023-06-09T13:03:00,sdl,12.57
2023-06-09T13:04:00,sdl,11.11
2023-06-09T13:05:00,sdl,11.80
2023-06-09T13:06:00,sdl,11.13
2023-06-09T13:07:00,sdl,11.32
2023-06-09T13:08:00,sdl,14.12
2023-06-09T13:09:00,sdl,14.10
2023-06-09T13:10:00,sdl,12.40
2023-06-09T13:11:00,sdl,12.55
2023-06-09T13:12:00,sdl,12.34
2023-06-09T13:13:00,sdl,12.76
2023-06-09T13:14:00,sdl,12.36
2023-06-09T13:15:00,sdl,12.38
2023-06-09T13:16:00,sdl,12.15
2023-06-09T13:17:00,sdl,12.14
2023-06-09T13:18:00,sdl,12.21
2023-06-09T13:19:00,sdl,13.27
2023-06-09T13:20:00,sdl,13.53
2023-06-09T13:21:00,sdl,14.17
2023-06-09T13:22:00,sdl,14.32
2023-06-09T13:23:00,sdl,14.70
2023-06-09T13:24:00,sdl,19.13
2023-06-09T13:25:00,sdl,19.19
2023-06-09T13:26:00,sdl,19.55
2023-06-09T13:27:00,sdl,19.91
2023-06-09T13:28:00,sdl,20.03
2023-06-09T13:29:00,sdl,20.46
2023-06-09T13:30:00,sdl,22.79
2023-06-09T13:31:00,sdl,21.98
2023-06-09T13:32:00,sdl,22.18
2023-06-09T13:33:00,sdl,22.33
2023-06-09T13:34:00,sdl,21.84
2023-06-09T13:35:00,sdl,16.84